DAL2246 KMSP-KLAS

Flight info

Callsign DAL2246
Flight time 2h 48m
Altitude 28000
Route SCHEP1 RXANN TEYOU LLUKY BFF EKR J100 SAKES GGAPP CHOWW4
Aircraft A332/H-SDE3GHIJ2J3J5M1RVWXY/LB2D1

Departure

Time 2026-05-06 00:06
Airport Minneapolis–Saint Paul International Airport / Wold–Chamberlain Field (KMSP)

Arrival

Time 2026-05-06 02:55
Airport Harry Reid International Airport (KLAS)
Time Latitude Longitude Altitude Speed Heading
2026-05-05 23:37 44.88076 -93.21056 829 ft 0 kts 21°
2026-05-05 23:56 44.88055 -93.21068 826 ft 4 kts 22°
2026-05-05 23:56 44.88030 -93.21083 826 ft 4 kts 31°
2026-05-05 23:56 44.88011 -93.21106 823 ft 4 kts 67°
2026-05-05 23:57 44.88009 -93.21140 824 ft 4 kts 114°
2026-05-05 23:57 44.88013 -93.21152 825 ft 1 kts 121°
2026-05-06 00:00 44.87984 -93.21084 827 ft 10 kts 121°
2026-05-06 00:01 44.87943 -93.21045 829 ft 6 kts 159°
2026-05-06 00:01 44.87900 -93.21022 826 ft 6 kts 159°
2026-05-06 00:01 44.87869 -93.20997 826 ft 4 kts 134°
2026-05-06 00:01 44.87848 -93.20964 830 ft 6 kts 130°
2026-05-06 00:02 44.87817 -93.20897 821 ft 9 kts 122°
2026-05-06 00:02 44.87786 -93.20826 825 ft 8 kts 122°
2026-05-06 00:02 44.87753 -93.20751 826 ft 10 kts 122°
2026-05-06 00:02 44.87716 -93.20667 830 ft 11 kts 122°
2026-05-06 00:03 44.87671 -93.20564 829 ft 14 kts 120°
2026-05-06 00:03 44.87618 -93.20436 828 ft 16 kts 121°
2026-05-06 00:03 44.87558 -93.20294 824 ft 18 kts 121°
2026-05-06 00:03 44.87491 -93.20137 828 ft 18 kts 122°
2026-05-06 00:04 44.87461 -93.20096 830 ft 0 kts 151°
2026-05-06 00:04 44.87458 -93.20093 823 ft 1 kts 151°
2026-05-06 00:05 44.87377 -93.20126 831 ft 8 kts 232°
2026-05-06 00:05 44.87404 -93.20246 825 ft 26 kts 300°
2026-05-06 00:05 44.87599 -93.20697 828 ft 82 kts 301°
2026-05-06 00:06 44.87991 -93.21599 826 ft 132 kts 301°
2026-05-06 00:06 44.88493 -93.22790 1148 ft 145 kts 300°
2026-05-06 00:06 44.88715 -93.24248 1275 ft 160 kts 269°
2026-05-06 00:06 44.88538 -93.25737 1816 ft 149 kts 262°
2026-05-06 00:07 44.88281 -93.27177 2105 ft 156 kts 260°
2026-05-06 00:07 44.87995 -93.28707 2341 ft 164 kts 260°
2026-05-06 00:07 44.87695 -93.30264 2752 ft 163 kts 259°
2026-05-06 00:07 44.87404 -93.31780 3156 ft 161 kts 260°
2026-05-06 00:08 44.87108 -93.33293 3573 ft 159 kts 260°
2026-05-06 00:08 44.86809 -93.34783 3961 ft 157 kts 259°
2026-05-06 00:08 44.86520 -93.36246 4385 ft 153 kts 259°
2026-05-06 00:08 44.86028 -93.37609 4677 ft 163 kts 243°
2026-05-06 00:09 44.85302 -93.38981 4763 ft 185 kts 235°
2026-05-06 00:09 44.84415 -93.40412 4934 ft 203 kts 233°
2026-05-06 00:09 44.83415 -93.41940 5116 ft 221 kts 231°
2026-05-06 00:09 44.82321 -93.43578 5321 ft 239 kts 231°
2026-05-06 00:10 44.81135 -93.45343 5580 ft 255 kts 230°
2026-05-06 00:10 44.79891 -93.47181 6108 ft 261 kts 230°
2026-05-06 00:10 44.78630 -93.49039 6745 ft 263 kts 230°
2026-05-06 00:10 44.77365 -93.50903 7382 ft 264 kts 230°
2026-05-06 00:11 44.76107 -93.52758 8027 ft 266 kts 230°
2026-05-06 00:11 44.74826 -93.54649 8679 ft 268 kts 230°
2026-05-06 00:11 44.73534 -93.56555 9357 ft 269 kts 231°
2026-05-06 00:11 44.72236 -93.58470 9992 ft 271 kts 231°
2026-05-06 00:12 44.70918 -93.60418 10372 ft 282 kts 231°
2026-05-06 00:12 44.69620 -93.62577 10587 ft 296 kts 236°
2026-05-06 00:12 44.68359 -93.64960 10804 ft 311 kts 237°
2026-05-06 00:12 44.67075 -93.67444 10989 ft 326 kts 237°
2026-05-06 00:13 44.65718 -93.70068 11320 ft 336 kts 237°
2026-05-06 00:13 44.64333 -93.72736 11808 ft 340 kts 237°
2026-05-06 00:13 44.62931 -93.75430 12372 ft 343 kts 237°
2026-05-06 00:13 44.61516 -93.78146 12901 ft 346 kts 237°
2026-05-06 00:14 44.60090 -93.80880 13426 ft 349 kts 237°
2026-05-06 00:14 44.58647 -93.83645 13900 ft 352 kts 237°
2026-05-06 00:14 44.57194 -93.86426 14375 ft 354 kts 237°
2026-05-06 00:14 44.55733 -93.89220 14855 ft 356 kts 237°
2026-05-06 00:15 44.54280 -93.91997 15305 ft 358 kts 236°
2026-05-06 00:15 44.52803 -93.94816 15774 ft 360 kts 236°
2026-05-06 00:15 44.51314 -93.97656 16255 ft 362 kts 236°
2026-05-06 00:15 44.49818 -94.00508 16711 ft 364 kts 236°
2026-05-06 00:16 44.48314 -94.03371 17163 ft 366 kts 236°
2026-05-06 00:16 44.46797 -94.06257 17615 ft 368 kts 236°
2026-05-06 00:16 44.45293 -94.09115 18044 ft 370 kts 236°
2026-05-06 00:16 44.43758 -94.12028 18463 ft 372 kts 236°
2026-05-06 00:17 44.42225 -94.14933 18957 ft 370 kts 237°
2026-05-06 00:17 44.40703 -94.17811 19521 ft 366 kts 237°
2026-05-06 00:17 44.39197 -94.20655 20056 ft 363 kts 238°
2026-05-06 00:17 44.37697 -94.23488 20513 ft 362 kts 238°
2026-05-06 00:18 44.36197 -94.26319 20980 ft 361 kts 238°
2026-05-06 00:18 44.34719 -94.29106 21454 ft 359 kts 239°
2026-05-06 00:18 44.33233 -94.31904 21930 ft 356 kts 239°
2026-05-06 00:18 44.31767 -94.34657 22579 ft 350 kts 240°
2026-05-06 00:19 44.30319 -94.37379 23085 ft 348 kts 240°
2026-05-06 00:19 44.28876 -94.40091 23523 ft 347 kts 240°
2026-05-06 00:19 44.27431 -94.42805 23832 ft 348 kts 240°
2026-05-06 00:19 44.25997 -94.45496 24072 ft 350 kts 240°
2026-05-06 00:20 44.24541 -94.48227 24343 ft 351 kts 240°
2026-05-06 00:20 44.23081 -94.50961 24616 ft 352 kts 240°
2026-05-06 00:20 44.21613 -94.53707 24912 ft 353 kts 240°
2026-05-06 00:20 44.20140 -94.56459 25202 ft 353 kts 240°
2026-05-06 00:21 44.18668 -94.59209 25465 ft 355 kts 240°
2026-05-06 00:21 44.17188 -94.61970 25712 ft 356 kts 240°
2026-05-06 00:21 44.15703 -94.64737 26003 ft 356 kts 240°
2026-05-06 00:21 44.14235 -94.67471 26288 ft 357 kts 240°
2026-05-06 00:22 44.12747 -94.70238 26522 ft 357 kts 239°
2026-05-06 00:22 44.11252 -94.73021 26708 ft 360 kts 239°
2026-05-06 00:22 44.09743 -94.75823 26962 ft 361 kts 239°
2026-05-06 00:22 44.08235 -94.78618 27225 ft 361 kts 239°
2026-05-06 00:23 44.06725 -94.81416 27462 ft 362 kts 239°
2026-05-06 00:23 44.05210 -94.84221 27713 ft 363 kts 239°
2026-05-06 00:23 44.03690 -94.87031 27937 ft 364 kts 239°
2026-05-06 00:23 44.02190 -94.89796 27992 ft 352 kts 239°
2026-05-06 00:24 44.00738 -94.92465 27994 ft 341 kts 239°
2026-05-06 00:24 43.99327 -94.95092 27992 ft 338 kts 240°
2026-05-06 00:24 43.97961 -94.97694 27987 ft 338 kts 240°
2026-05-06 00:24 43.96587 -95.00346 27984 ft 338 kts 240°
2026-05-06 00:25 43.95213 -95.03007 27991 ft 338 kts 240°
2026-05-06 00:25 43.93842 -95.05660 27989 ft 338 kts 240°
2026-05-06 00:25 43.92466 -95.08314 27990 ft 338 kts 240°
2026-05-06 00:25 43.91087 -95.10968 27953 ft 338 kts 240°
2026-05-06 00:26 43.89707 -95.13618 27988 ft 340 kts 240°
2026-05-06 00:26 43.88311 -95.16296 27986 ft 342 kts 240°
2026-05-06 00:26 43.86933 -95.18932 27992 ft 343 kts 240°
2026-05-06 00:26 43.85528 -95.21616 27990 ft 343 kts 239°
2026-05-06 00:27 43.84127 -95.24288 27993 ft 342 kts 239°
2026-05-06 00:27 43.82725 -95.26960 27991 ft 342 kts 239°
2026-05-06 00:27 43.81327 -95.29624 27995 ft 342 kts 239°
2026-05-06 00:27 43.79925 -95.32294 27991 ft 343 kts 239°
2026-05-06 00:28 43.78524 -95.34959 27997 ft 343 kts 239°
2026-05-06 00:28 43.77121 -95.37626 27990 ft 342 kts 239°
2026-05-06 00:28 43.75719 -95.40288 27988 ft 342 kts 239°
2026-05-06 00:28 43.74317 -95.42949 27985 ft 342 kts 239°
2026-05-06 00:29 43.72913 -95.45610 27982 ft 342 kts 239°
2026-05-06 00:29 43.71519 -95.48255 27979 ft 348 kts 239°
2026-05-06 00:29 43.70079 -95.50987 27977 ft 354 kts 239°
2026-05-06 00:29 43.68612 -95.53768 27973 ft 360 kts 239°
2026-05-06 00:30 43.67123 -95.56586 27975 ft 367 kts 239°
2026-05-06 00:30 43.65600 -95.59463 27976 ft 373 kts 238°
2026-05-06 00:30 43.64053 -95.62379 27976 ft 379 kts 238°
2026-05-06 00:31 43.60894 -95.68322 28009 ft 391 kts 238°
2026-05-06 00:31 43.57629 -95.74452 28014 ft 399 kts 238°
2026-05-06 00:32 43.54331 -95.80619 28008 ft 398 kts 238°
2026-05-06 00:32 43.51059 -95.86733 28003 ft 398 kts 238°
2026-05-06 00:32 43.49412 -95.89806 28000 ft 398 kts 238°
2026-05-06 00:33 43.47764 -95.92882 27953 ft 398 kts 238°
2026-05-06 00:33 43.46115 -95.95954 27986 ft 399 kts 238°
2026-05-06 00:33 43.44460 -95.99037 27990 ft 400 kts 238°
2026-05-06 00:33 43.42802 -96.02122 27990 ft 400 kts 238°
2026-05-06 00:34 43.41167 -96.05159 27990 ft 400 kts 238°
2026-05-06 00:34 43.39507 -96.08241 27990 ft 400 kts 237°
2026-05-06 00:34 43.37848 -96.11315 27993 ft 400 kts 238°
2026-05-06 00:34 43.36190 -96.14386 27993 ft 400 kts 238°
2026-05-06 00:35 43.34529 -96.17459 27995 ft 400 kts 238°
2026-05-06 00:35 43.33424 -96.19501 27997 ft 400 kts 238°
2026-05-06 00:35 43.31764 -96.22568 27996 ft 400 kts 237°
2026-05-06 00:35 43.30127 -96.25660 27998 ft 399 kts 240°
2026-05-06 00:36 43.28749 -96.28957 28005 ft 396 kts 245°
2026-05-06 00:36 43.26392 -96.35731 28005 ft 395 kts 248°
2026-05-06 00:37 43.24145 -96.42642 28003 ft 396 kts 248°
2026-05-06 00:37 43.21901 -96.49586 28004 ft 398 kts 248°
2026-05-06 00:38 43.19646 -96.56488 28012 ft 398 kts 247°
2026-05-06 00:38 43.17363 -96.63429 28012 ft 398 kts 247°
2026-05-06 00:39 43.15090 -96.70314 28021 ft 398 kts 247°
2026-05-06 00:39 43.12802 -96.77231 28021 ft 399 kts 247°
2026-05-06 00:40 43.10508 -96.84147 28025 ft 399 kts 247°
2026-05-06 00:40 43.08210 -96.91058 28034 ft 399 kts 247°
2026-05-06 00:41 43.05909 -96.97960 28031 ft 399 kts 247°
2026-05-06 00:41 43.03617 -97.04820 28032 ft 399 kts 247°
2026-05-06 00:42 43.01303 -97.11724 28026 ft 399 kts 247°
2026-05-06 00:42 43.00148 -97.15167 27998 ft 399 kts 246°
2026-05-06 00:42 42.98986 -97.18625 28021 ft 401 kts 246°
2026-05-06 00:43 42.96646 -97.25577 28011 ft 403 kts 246°
2026-05-06 00:43 42.94298 -97.32528 28009 ft 403 kts 246°
2026-05-06 00:44 42.91961 -97.39431 28009 ft 403 kts 246°
2026-05-06 00:44 42.89607 -97.46368 28009 ft 403 kts 246°
2026-05-06 00:45 42.87248 -97.53304 28054 ft 403 kts 246°
2026-05-06 00:45 42.84886 -97.60233 28050 ft 403 kts 246°
2026-05-06 00:46 42.82515 -97.67164 28053 ft 403 kts 246°
2026-05-06 00:46 42.80155 -97.74045 28054 ft 403 kts 246°
2026-05-06 00:47 42.77772 -97.80976 28053 ft 403 kts 246°
2026-05-06 00:47 42.75403 -97.87853 28051 ft 403 kts 246°
2026-05-06 00:48 42.73012 -97.94779 28044 ft 405 kts 246°
2026-05-06 00:48 42.70610 -98.01719 28046 ft 406 kts 246°
2026-05-06 00:49 42.68194 -98.08680 28046 ft 407 kts 245°
2026-05-06 00:49 42.65774 -98.15633 28044 ft 407 kts 245°
2026-05-06 00:50 42.63367 -98.22530 28047 ft 407 kts 245°
2026-05-06 00:50 42.60935 -98.29484 28048 ft 407 kts 245°
2026-05-06 00:51 42.58503 -98.36420 28046 ft 407 kts 245°
2026-05-06 00:51 42.56068 -98.43346 28038 ft 406 kts 245°
2026-05-06 00:52 42.53633 -98.50259 28029 ft 406 kts 245°
2026-05-06 00:52 42.51194 -98.57163 28025 ft 406 kts 245°
2026-05-06 00:53 42.49071 -98.64190 28027 ft 406 kts 255°
2026-05-06 00:53 42.48030 -98.71716 28027 ft 407 kts 259°
2026-05-06 00:54 42.47251 -98.79316 28028 ft 407 kts 261°
2026-05-06 00:54 42.46513 -98.86903 28028 ft 406 kts 261°
2026-05-06 00:55 42.45750 -98.94499 28029 ft 406 kts 260°
2026-05-06 00:55 42.44972 -99.02029 28033 ft 406 kts 260°
2026-05-06 00:56 42.44178 -99.09608 28038 ft 406 kts 260°
2026-05-06 00:56 42.43380 -99.17189 28036 ft 405 kts 260°
2026-05-06 00:57 42.42580 -99.24746 28036 ft 405 kts 260°
2026-05-06 00:57 42.41781 -99.32238 28037 ft 405 kts 260°
2026-05-06 00:58 42.40972 -99.39792 28036 ft 405 kts 260°
2026-05-06 00:58 42.40157 -99.47337 28041 ft 405 kts 260°
2026-05-06 00:59 42.39340 -99.54865 28030 ft 404 kts 259°
2026-05-06 00:59 42.38520 -99.62376 28030 ft 404 kts 259°
2026-05-06 01:00 42.37693 -99.69894 28028 ft 404 kts 259°
2026-05-06 01:00 42.36869 -99.77347 28030 ft 403 kts 259°
2026-05-06 01:01 42.36034 -99.84850 28034 ft 403 kts 259°
2026-05-06 01:01 42.35194 -99.92352 28025 ft 402 kts 259°
2026-05-06 01:02 42.34352 -99.99822 28029 ft 402 kts 259°
2026-05-06 01:02 42.33505 -100.07298 28019 ft 402 kts 259°
2026-05-06 01:03 42.32651 -100.14775 28022 ft 402 kts 259°
2026-05-06 01:03 42.31799 -100.22194 28021 ft 402 kts 259°
2026-05-06 01:04 42.30936 -100.29678 28022 ft 402 kts 259°
2026-05-06 01:04 42.30069 -100.37144 28020 ft 402 kts 259°
2026-05-06 01:05 42.29198 -100.44611 28019 ft 402 kts 259°
2026-05-06 01:05 42.28329 -100.52022 28018 ft 402 kts 259°
2026-05-06 01:06 42.27447 -100.59485 28014 ft 402 kts 259°
2026-05-06 01:06 42.26561 -100.66947 28018 ft 402 kts 259°
2026-05-06 01:07 42.25672 -100.74376 28019 ft 402 kts 259°
2026-05-06 01:07 42.24776 -100.81837 28018 ft 402 kts 259°
2026-05-06 01:08 42.23882 -100.89242 28014 ft 402 kts 259°
2026-05-06 01:08 42.22975 -100.96701 28017 ft 402 kts 259°
2026-05-06 01:09 42.22063 -101.04161 28017 ft 402 kts 259°
2026-05-06 01:09 42.21154 -101.11569 28017 ft 402 kts 259°
2026-05-06 01:10 42.20234 -101.19011 28020 ft 402 kts 259°
2026-05-06 01:10 42.19310 -101.26445 28020 ft 402 kts 259°
2026-05-06 01:11 42.18383 -101.33877 28020 ft 402 kts 259°
2026-05-06 01:11 42.17448 -101.41317 28019 ft 402 kts 259°
2026-05-06 01:12 42.16514 -101.48717 28021 ft 402 kts 259°
2026-05-06 01:12 42.15570 -101.56152 28020 ft 402 kts 259°
2026-05-06 01:13 42.14620 -101.63588 28020 ft 402 kts 259°
2026-05-06 01:13 42.13667 -101.71013 28020 ft 402 kts 258°
2026-05-06 01:14 42.12231 -101.82125 28021 ft 403 kts 258°
2026-05-06 01:14 42.11264 -101.89565 28022 ft 403 kts 258°
2026-05-06 01:15 42.10291 -101.97006 28023 ft 403 kts 258°
2026-05-06 01:15 42.09316 -102.04437 28010 ft 403 kts 258°
2026-05-06 01:16 42.08500 -102.10612 28021 ft 404 kts 258°
2026-05-06 01:16 42.07344 -102.19320 28019 ft 404 kts 258°
2026-05-06 01:17 42.06352 -102.26758 28019 ft 404 kts 258°
2026-05-06 01:17 42.05352 -102.34211 28012 ft 404 kts 258°
2026-05-06 01:18 42.04355 -102.41609 28016 ft 404 kts 258°
2026-05-06 01:18 42.03347 -102.49048 28010 ft 404 kts 258°
2026-05-06 01:19 42.02333 -102.56488 28008 ft 404 kts 258°
2026-05-06 01:19 42.01316 -102.63916 28007 ft 404 kts 258°
2026-05-06 01:20 42.00302 -102.71284 28010 ft 404 kts 258°
2026-05-06 01:20 41.99275 -102.78710 28006 ft 404 kts 258°
2026-05-06 01:21 41.98417 -102.84890 28007 ft 404 kts 258°
2026-05-06 01:21 41.97378 -102.92328 28008 ft 404 kts 258°
2026-05-06 01:22 41.96334 -102.99777 28008 ft 404 kts 258°
2026-05-06 01:22 41.95293 -103.07161 28010 ft 404 kts 258°
2026-05-06 01:23 41.94243 -103.14584 28012 ft 404 kts 258°
2026-05-06 01:23 41.93187 -103.22008 28021 ft 405 kts 258°
2026-05-06 01:24 41.92124 -103.29436 28020 ft 405 kts 258°
2026-05-06 01:24 41.91061 -103.36836 28024 ft 405 kts 258°
2026-05-06 01:25 41.89988 -103.44257 28026 ft 405 kts 257°
2026-05-06 01:25 41.88159 -103.51367 28021 ft 404 kts 246°
2026-05-06 01:26 41.85676 -103.58189 28029 ft 407 kts 244°
2026-05-06 01:26 41.83065 -103.64937 28025 ft 408 kts 244°
2026-05-06 01:27 41.80459 -103.71642 28028 ft 408 kts 244°
2026-05-06 01:27 41.77858 -103.78375 27994 ft 407 kts 244°
2026-05-06 01:28 41.75245 -103.85154 28043 ft 409 kts 244°
2026-05-06 01:28 41.72634 -103.91917 28048 ft 411 kts 244°
2026-05-06 01:29 41.69995 -103.98735 28056 ft 412 kts 244°
2026-05-06 01:29 41.67365 -104.05512 28061 ft 412 kts 244°
2026-05-06 01:30 41.64715 -104.12320 28056 ft 412 kts 244°
2026-05-06 01:30 41.62067 -104.19110 28056 ft 412 kts 244°
2026-05-06 01:31 41.59408 -104.25913 28056 ft 414 kts 244°
2026-05-06 01:31 41.56729 -104.32754 28055 ft 416 kts 244°
2026-05-06 01:32 41.54038 -104.39607 28064 ft 416 kts 244°
2026-05-06 01:32 41.51346 -104.46443 28070 ft 416 kts 244°
2026-05-06 01:33 41.48666 -104.53236 28068 ft 416 kts 244°
2026-05-06 01:33 41.45964 -104.60070 28080 ft 416 kts 244°
2026-05-06 01:34 41.43262 -104.66888 28053 ft 415 kts 244°
2026-05-06 01:34 41.40557 -104.73697 28044 ft 415 kts 243°
2026-05-06 01:35 41.37864 -104.80459 28039 ft 416 kts 243°
2026-05-06 01:35 41.35145 -104.87269 28032 ft 416 kts 243°
2026-05-06 01:36 41.32425 -104.94068 28030 ft 416 kts 244°
2026-05-06 01:36 41.29682 -105.00912 28063 ft 420 kts 243°
2026-05-06 01:37 41.26934 -105.07750 28056 ft 421 kts 243°
2026-05-06 01:37 41.24168 -105.14614 28056 ft 421 kts 243°
2026-05-06 01:38 41.21414 -105.21434 28054 ft 421 kts 243°
2026-05-06 01:38 41.18635 -105.28298 28044 ft 421 kts 243°
2026-05-06 01:39 41.15859 -105.35144 28020 ft 425 kts 243°
2026-05-06 01:39 41.13046 -105.42064 28026 ft 426 kts 243°
2026-05-06 01:40 41.10234 -105.48965 28025 ft 425 kts 243°
2026-05-06 01:40 41.07413 -105.55870 28019 ft 425 kts 243°
2026-05-06 01:41 41.04589 -105.62767 28025 ft 425 kts 243°
2026-05-06 01:41 41.01770 -105.69639 28024 ft 430 kts 243°
2026-05-06 01:42 40.98898 -105.76622 28028 ft 432 kts 243°
2026-05-06 01:42 40.96014 -105.83614 28020 ft 432 kts 243°
2026-05-06 01:43 40.93124 -105.90605 28021 ft 432 kts 243°
2026-05-06 01:43 40.90247 -105.97552 27995 ft 432 kts 243°
2026-05-06 01:44 40.88802 -106.01035 27978 ft 433 kts 244°
2026-05-06 01:44 40.87345 -106.04546 27996 ft 438 kts 244°
2026-05-06 01:44 40.85869 -106.08098 27974 ft 443 kts 244°
2026-05-06 01:44 40.84385 -106.11664 27962 ft 444 kts 243°
2026-05-06 01:45 40.82896 -106.15237 27973 ft 442 kts 243°
2026-05-06 01:45 40.81412 -106.18792 27975 ft 441 kts 243°
2026-05-06 01:45 40.79930 -106.22334 27966 ft 440 kts 243°
2026-05-06 01:45 40.78466 -106.25830 27953 ft 440 kts 243°
2026-05-06 01:46 40.76980 -106.29375 27955 ft 440 kts 243°
2026-05-06 01:46 40.75492 -106.32923 27954 ft 440 kts 243°
2026-05-06 01:46 40.74010 -106.36455 27921 ft 441 kts 244°
2026-05-06 01:46 40.72515 -106.40017 27931 ft 446 kts 244°
2026-05-06 01:47 40.71014 -106.43586 27927 ft 450 kts 244°
2026-05-06 01:47 40.69490 -106.47205 27928 ft 451 kts 244°
2026-05-06 01:47 40.67962 -106.50825 27913 ft 451 kts 244°
2026-05-06 01:47 40.66437 -106.54433 27931 ft 450 kts 244°
2026-05-06 01:48 40.64911 -106.58038 27917 ft 450 kts 244°
2026-05-06 01:48 40.63383 -106.61647 27935 ft 450 kts 244°
2026-05-06 01:48 40.61856 -106.65249 27917 ft 450 kts 244°
2026-05-06 01:48 40.60346 -106.68805 27919 ft 450 kts 244°
2026-05-06 01:49 40.58976 -106.72494 27939 ft 451 kts 247°
2026-05-06 01:49 40.57490 -106.76156 27942 ft 456 kts 245°
2026-05-06 01:49 40.55906 -106.79783 27947 ft 458 kts 244°
2026-05-06 01:49 40.54291 -106.83394 27945 ft 458 kts 244°
2026-05-06 01:50 40.52676 -106.87010 27927 ft 458 kts 244°
2026-05-06 01:50 40.51079 -106.90635 27903 ft 457 kts 243°
2026-05-06 01:50 40.49500 -106.94259 27919 ft 457 kts 243°
2026-05-06 01:50 40.47926 -106.97903 27927 ft 456 kts 243°
2026-05-06 01:51 40.46638 -107.00898 27931 ft 456 kts 244°
2026-05-06 01:51 40.45078 -107.04533 27939 ft 456 kts 244°
2026-05-06 01:51 40.43532 -107.08135 27943 ft 458 kts 244°
2026-05-06 01:51 40.41954 -107.11811 27953 ft 462 kts 244°
2026-05-06 01:52 40.40386 -107.15456 27949 ft 464 kts 244°
2026-05-06 01:52 40.38796 -107.19146 27950 ft 464 kts 244°
2026-05-06 01:52 40.37202 -107.22833 27949 ft 464 kts 244°
2026-05-06 01:52 40.35602 -107.26531 27937 ft 464 kts 244°
2026-05-06 01:53 40.34009 -107.30209 27933 ft 464 kts 244°
2026-05-06 01:53 40.32413 -107.33890 27924 ft 464 kts 244°
2026-05-06 01:53 40.30817 -107.37565 27912 ft 464 kts 244°
2026-05-06 01:53 40.29244 -107.41186 27891 ft 464 kts 245°
2026-05-06 01:54 40.27640 -107.44873 27896 ft 467 kts 245°
2026-05-06 01:54 40.26026 -107.48581 27899 ft 470 kts 245°
2026-05-06 01:54 40.24401 -107.52307 27894 ft 470 kts 245°
2026-05-06 01:54 40.22780 -107.56021 27885 ft 470 kts 245°
2026-05-06 01:55 40.21156 -107.59734 27890 ft 470 kts 245°
2026-05-06 01:55 40.19527 -107.63454 27855 ft 470 kts 244°
2026-05-06 01:55 40.17902 -107.67166 27871 ft 472 kts 244°
2026-05-06 01:55 40.16260 -107.70907 27866 ft 473 kts 244°
2026-05-06 01:56 40.14619 -107.74641 27828 ft 473 kts 244°
2026-05-06 01:56 40.12974 -107.78377 27858 ft 476 kts 244°
2026-05-06 01:56 40.11337 -107.82096 27857 ft 478 kts 244°
2026-05-06 01:56 40.09671 -107.85876 27856 ft 479 kts 244°
2026-05-06 01:57 40.08002 -107.89656 27850 ft 479 kts 244°
2026-05-06 01:57 40.06308 -107.93416 27953 ft 480 kts 242°
2026-05-06 01:57 40.04515 -107.97113 27953 ft 481 kts 241°
2026-05-06 01:57 40.02693 -108.00709 27949 ft 481 kts 240°
2026-05-06 01:58 40.00815 -108.04347 27937 ft 481 kts 240°
2026-05-06 01:58 39.98939 -108.07965 27922 ft 481 kts 240°
2026-05-06 01:58 39.97065 -108.11588 27908 ft 481 kts 240°
2026-05-06 01:58 39.95200 -108.15209 27896 ft 481 kts 240°
2026-05-06 01:59 39.93335 -108.18844 27877 ft 481 kts 240°
2026-05-06 01:59 39.91501 -108.22427 27862 ft 481 kts 240°
2026-05-06 01:59 39.89643 -108.26057 27845 ft 481 kts 240°
2026-05-06 01:59 39.87791 -108.29675 27806 ft 481 kts 239°
2026-05-06 02:00 39.85939 -108.33284 27818 ft 483 kts 240°
2026-05-06 02:00 39.84050 -108.36962 27824 ft 484 kts 240°
2026-05-06 02:00 39.82178 -108.40602 27825 ft 485 kts 240°
2026-05-06 02:00 39.80300 -108.44252 27804 ft 485 kts 240°
2026-05-06 02:01 39.78409 -108.47923 27813 ft 487 kts 240°
2026-05-06 02:01 39.76541 -108.51544 27808 ft 489 kts 240°
2026-05-06 02:01 39.74645 -108.55218 27797 ft 489 kts 240°
2026-05-06 02:01 39.72746 -108.58891 27785 ft 489 kts 240°
2026-05-06 02:02 39.70844 -108.62565 27784 ft 489 kts 240°
2026-05-06 02:02 39.68940 -108.66237 27783 ft 489 kts 240°
2026-05-06 02:02 39.67040 -108.69898 27785 ft 489 kts 240°
2026-05-06 02:02 39.65135 -108.73564 27769 ft 489 kts 240°
2026-05-06 02:03 39.63230 -108.77224 27773 ft 489 kts 240°
2026-05-06 02:03 39.61349 -108.80836 27758 ft 490 kts 239°
2026-05-06 02:03 39.59438 -108.84505 27759 ft 492 kts 239°
2026-05-06 02:03 39.57518 -108.88188 27750 ft 493 kts 239°
2026-05-06 02:04 39.55584 -108.91886 27753 ft 494 kts 239°
2026-05-06 02:04 39.53648 -108.95585 27753 ft 495 kts 239°
2026-05-06 02:04 39.51707 -108.99288 27758 ft 496 kts 239°
2026-05-06 02:04 39.49770 -109.02980 27741 ft 496 kts 239°
2026-05-06 02:05 39.47852 -109.06633 27742 ft 496 kts 239°
2026-05-06 02:05 39.45906 -109.10335 27743 ft 496 kts 239°
2026-05-06 02:05 39.43963 -109.14026 27748 ft 496 kts 239°
2026-05-06 02:05 39.42007 -109.17741 27755 ft 497 kts 239°
2026-05-06 02:06 39.40081 -109.21393 27750 ft 498 kts 239°
2026-05-06 02:06 39.38125 -109.25098 27751 ft 499 kts 239°
2026-05-06 02:06 39.36167 -109.28799 27744 ft 499 kts 239°
2026-05-06 02:06 39.34206 -109.32502 27747 ft 499 kts 239°
2026-05-06 02:07 39.32245 -109.36200 27744 ft 498 kts 239°
2026-05-06 02:07 39.30282 -109.39899 27765 ft 499 kts 239°
2026-05-06 02:07 39.28320 -109.43596 27760 ft 499 kts 239°
2026-05-06 02:07 39.26357 -109.47290 27757 ft 499 kts 239°
2026-05-06 02:08 39.24410 -109.50947 27748 ft 500 kts 238°
2026-05-06 02:08 39.22427 -109.54665 27743 ft 502 kts 238°
2026-05-06 02:08 39.20443 -109.58381 27747 ft 504 kts 238°
2026-05-06 02:08 39.18449 -109.62115 27748 ft 505 kts 238°
2026-05-06 02:09 39.16452 -109.65848 27747 ft 505 kts 238°
2026-05-06 02:09 39.14455 -109.69576 27750 ft 505 kts 238°
2026-05-06 02:09 39.12452 -109.73311 27749 ft 505 kts 238°
2026-05-06 02:09 39.10468 -109.77007 27752 ft 505 kts 238°
2026-05-06 02:10 39.08462 -109.80741 27748 ft 505 kts 238°
2026-05-06 02:10 39.06458 -109.84469 27758 ft 506 kts 238°
2026-05-06 02:10 39.04476 -109.88149 27760 ft 507 kts 238°
2026-05-06 02:10 39.02461 -109.91888 27762 ft 507 kts 238°
2026-05-06 02:11 39.00443 -109.95629 27764 ft 507 kts 238°
2026-05-06 02:11 38.98426 -109.99361 27755 ft 507 kts 238°
2026-05-06 02:11 38.96439 -110.03034 27756 ft 507 kts 238°
2026-05-06 02:11 38.94425 -110.06751 27752 ft 507 kts 238°
2026-05-06 02:12 38.92406 -110.10472 27753 ft 507 kts 238°
2026-05-06 02:12 38.90388 -110.14189 27745 ft 507 kts 238°
2026-05-06 02:12 38.88365 -110.17914 27752 ft 509 kts 238°
2026-05-06 02:12 38.86332 -110.21650 27755 ft 510 kts 238°
2026-05-06 02:13 38.84292 -110.25384 27743 ft 511 kts 236°
2026-05-06 02:13 38.82035 -110.28940 27747 ft 513 kts 232°
2026-05-06 02:13 38.79720 -110.32425 27747 ft 513 kts 231°
2026-05-06 02:13 38.77411 -110.35849 27752 ft 513 kts 231°
2026-05-06 02:14 38.75064 -110.39311 27752 ft 513 kts 231°
2026-05-06 02:14 38.72715 -110.42766 27747 ft 513 kts 231°
2026-05-06 02:14 38.70366 -110.46215 27744 ft 513 kts 231°
2026-05-06 02:14 38.68017 -110.49660 27749 ft 514 kts 231°
2026-05-06 02:15 38.65661 -110.53111 27753 ft 515 kts 231°
2026-05-06 02:15 38.63331 -110.56520 27751 ft 515 kts 231°
2026-05-06 02:15 38.60968 -110.59974 27743 ft 516 kts 231°
2026-05-06 02:15 38.58602 -110.63425 27809 ft 517 kts 231°
2026-05-06 02:16 38.56225 -110.66892 27820 ft 518 kts 231°
2026-05-06 02:16 38.53843 -110.70362 27831 ft 518 kts 231°
2026-05-06 02:16 38.51461 -110.73829 27838 ft 518 kts 231°
2026-05-06 02:16 38.49082 -110.77288 27841 ft 518 kts 231°
2026-05-06 02:17 38.46708 -110.80734 27830 ft 518 kts 231°
2026-05-06 02:17 38.44319 -110.84199 27834 ft 519 kts 230°
2026-05-06 02:17 38.41930 -110.87662 27823 ft 521 kts 230°
2026-05-06 02:17 38.39559 -110.91093 27813 ft 522 kts 230°
2026-05-06 02:18 38.37152 -110.94572 27798 ft 522 kts 230°
2026-05-06 02:18 38.34748 -110.98038 27788 ft 522 kts 230°
2026-05-06 02:18 38.32346 -111.01502 27786 ft 522 kts 230°
2026-05-06 02:18 38.29945 -111.04960 27772 ft 522 kts 230°
2026-05-06 02:19 38.27537 -111.08426 27757 ft 522 kts 230°
2026-05-06 02:19 38.25125 -111.11897 27742 ft 523 kts 230°
2026-05-06 02:19 38.22746 -111.15316 27764 ft 523 kts 230°
2026-05-06 02:19 38.20328 -111.18788 27770 ft 524 kts 230°
2026-05-06 02:20 38.15476 -111.25740 27769 ft 525 kts 230°
2026-05-06 02:20 38.13051 -111.29205 27784 ft 525 kts 230°
2026-05-06 02:20 38.10619 -111.32677 27784 ft 525 kts 230°
2026-05-06 02:21 38.08190 -111.36142 27787 ft 525 kts 230°
2026-05-06 02:21 38.05760 -111.39605 27785 ft 525 kts 230°
2026-05-06 02:21 38.03330 -111.43064 27810 ft 525 kts 230°
2026-05-06 02:21 38.00898 -111.46524 27802 ft 525 kts 229°
2026-05-06 02:22 37.98465 -111.49980 27800 ft 526 kts 229°
2026-05-06 02:22 37.96025 -111.53443 27797 ft 526 kts 229°
2026-05-06 02:22 37.93589 -111.56898 27814 ft 526 kts 229°
2026-05-06 02:22 37.91176 -111.60316 27816 ft 526 kts 229°
2026-05-06 02:23 37.88736 -111.63770 27798 ft 526 kts 229°
2026-05-06 02:23 37.86294 -111.67222 27796 ft 526 kts 229°
2026-05-06 02:23 37.83846 -111.70677 27795 ft 526 kts 229°
2026-05-06 02:23 37.81399 -111.74127 27809 ft 526 kts 229°
2026-05-06 02:24 37.78952 -111.77573 27831 ft 526 kts 229°
2026-05-06 02:24 37.76505 -111.81014 27848 ft 526 kts 229°
2026-05-06 02:24 37.74081 -111.84422 27868 ft 527 kts 229°
2026-05-06 02:24 37.71650 -111.87833 27641 ft 517 kts 229°
2026-05-06 02:25 37.69264 -111.91176 27424 ft 507 kts 229°
2026-05-06 02:25 37.66920 -111.94461 27180 ft 498 kts 229°
2026-05-06 02:25 37.64633 -111.97663 26943 ft 488 kts 229°
2026-05-06 02:25 37.62369 -112.00833 26689 ft 480 kts 229°
2026-05-06 02:26 37.60142 -112.03944 26436 ft 477 kts 229°
2026-05-06 02:26 37.57920 -112.07046 26207 ft 475 kts 229°
2026-05-06 02:26 37.55702 -112.10138 25941 ft 474 kts 229°
2026-05-06 02:26 37.53547 -112.13269 25681 ft 470 kts 233°
2026-05-06 02:27 37.51685 -112.16588 25423 ft 468 kts 238°
2026-05-06 02:27 37.49907 -112.20006 25180 ft 465 kts 238°
2026-05-06 02:27 37.48151 -112.23418 24926 ft 463 kts 238°
2026-05-06 02:27 37.46404 -112.26811 24673 ft 461 kts 238°
2026-05-06 02:28 37.44659 -112.30186 24421 ft 458 kts 238°
2026-05-06 02:28 37.42924 -112.33536 24175 ft 455 kts 238°
2026-05-06 02:28 37.41776 -112.35748 24013 ft 454 kts 238°
2026-05-06 02:28 37.39476 -112.40176 23840 ft 451 kts 238°
2026-05-06 02:29 37.37755 -112.43485 23825 ft 450 kts 238°
2026-05-06 02:29 37.36066 -112.46730 23827 ft 449 kts 238°
2026-05-06 02:29 37.34906 -112.48955 23829 ft 449 kts 238°
2026-05-06 02:29 37.32631 -112.53316 23841 ft 451 kts 238°
2026-05-06 02:30 37.30900 -112.56629 23828 ft 452 kts 238°
2026-05-06 02:30 37.29171 -112.59936 23836 ft 452 kts 238°
2026-05-06 02:30 37.27465 -112.63193 23849 ft 452 kts 238°
2026-05-06 02:30 37.25737 -112.66492 23837 ft 452 kts 238°
2026-05-06 02:31 37.24008 -112.69789 23834 ft 452 kts 238°
2026-05-06 02:31 37.22277 -112.73086 23855 ft 452 kts 238°
2026-05-06 02:31 37.20548 -112.76375 23853 ft 452 kts 238°
2026-05-06 02:31 37.18817 -112.79664 23874 ft 452 kts 238°
2026-05-06 02:32 37.17085 -112.82952 23893 ft 452 kts 238°
2026-05-06 02:32 37.15349 -112.86246 23901 ft 453 kts 238°
2026-05-06 02:32 37.14198 -112.88428 23897 ft 453 kts 238°
2026-05-06 02:32 37.12460 -112.91721 23925 ft 453 kts 238°
2026-05-06 02:33 37.10719 -112.95014 23935 ft 453 kts 238°
2026-05-06 02:33 37.09567 -112.97193 23946 ft 453 kts 237°
2026-05-06 02:34 37.03771 -113.08128 23959 ft 452 kts 237°
2026-05-06 02:34 37.02027 -113.11411 23964 ft 453 kts 237°
2026-05-06 02:34 37.00281 -113.14696 23944 ft 454 kts 237°
2026-05-06 02:34 36.98531 -113.17986 23947 ft 454 kts 237°
2026-05-06 02:35 36.96779 -113.21275 23923 ft 454 kts 237°
2026-05-06 02:35 36.95042 -113.24532 23916 ft 454 kts 237°
2026-05-06 02:35 36.93287 -113.27820 23892 ft 454 kts 237°
2026-05-06 02:35 36.91531 -113.31108 23889 ft 454 kts 237°
2026-05-06 02:36 36.89774 -113.34392 23866 ft 454 kts 237°
2026-05-06 02:36 36.88012 -113.37683 23847 ft 454 kts 237°
2026-05-06 02:36 36.86269 -113.40937 23844 ft 454 kts 237°
2026-05-06 02:36 36.84511 -113.44215 23846 ft 454 kts 237°
2026-05-06 02:37 36.82747 -113.47503 23842 ft 456 kts 237°
2026-05-06 02:37 36.80981 -113.50791 23825 ft 456 kts 237°
2026-05-06 02:37 36.79221 -113.54074 23349 ft 456 kts 237°
2026-05-06 02:37 36.77453 -113.57370 22715 ft 456 kts 237°
2026-05-06 02:38 36.75718 -113.60603 22226 ft 452 kts 237°
2026-05-06 02:38 36.73972 -113.63851 21732 ft 449 kts 237°
2026-05-06 02:38 36.72241 -113.67070 21237 ft 445 kts 237°
2026-05-06 02:38 36.70520 -113.70267 20757 ft 442 kts 237°
2026-05-06 02:39 36.68811 -113.73438 20270 ft 438 kts 237°
2026-05-06 02:39 36.67117 -113.76580 19800 ft 435 kts 237°
2026-05-06 02:39 36.65433 -113.79699 19348 ft 431 kts 237°
2026-05-06 02:39 36.63764 -113.82789 18875 ft 428 kts 237°
2026-05-06 02:40 36.62110 -113.85848 18415 ft 425 kts 237°
2026-05-06 02:40 36.60483 -113.88854 17922 ft 421 kts 237°
2026-05-06 02:40 36.58838 -113.91846 17449 ft 417 kts 235°
2026-05-06 02:40 36.57108 -113.94718 17003 ft 412 kts 233°
2026-05-06 02:41 36.55369 -113.97519 16648 ft 405 kts 233°
2026-05-06 02:41 36.53658 -114.00265 16308 ft 398 kts 233°
2026-05-06 02:41 36.51974 -114.02971 15903 ft 393 kts 233°
2026-05-06 02:41 36.50327 -114.05617 15772 ft 380 kts 233°
2026-05-06 02:42 36.48730 -114.08183 15659 ft 369 kts 233°
2026-05-06 02:42 36.47183 -114.10669 15497 ft 359 kts 233°
2026-05-06 02:42 36.45667 -114.13104 15332 ft 350 kts 233°
2026-05-06 02:42 36.44197 -114.15466 15171 ft 341 kts 233°
2026-05-06 02:43 36.42762 -114.17768 15005 ft 333 kts 233°
2026-05-06 02:43 36.41374 -114.19994 14741 ft 329 kts 233°
2026-05-06 02:43 36.39972 -114.22243 14390 ft 328 kts 233°
2026-05-06 02:43 36.38569 -114.24465 14079 ft 326 kts 233°
2026-05-06 02:44 36.37169 -114.26665 13773 ft 323 kts 233°
2026-05-06 02:44 36.35780 -114.28846 13451 ft 321 kts 233°
2026-05-06 02:44 36.34399 -114.31011 13134 ft 318 kts 233°
2026-05-06 02:44 36.33030 -114.33155 12837 ft 315 kts 233°
2026-05-06 02:45 36.31680 -114.35271 12544 ft 311 kts 233°
2026-05-06 02:45 36.30355 -114.37346 12254 ft 308 kts 233°
2026-05-06 02:45 36.29031 -114.39419 11957 ft 306 kts 233°
2026-05-06 02:45 36.27714 -114.41479 11673 ft 304 kts 233°
2026-05-06 02:46 36.26411 -114.43515 11370 ft 296 kts 233°
2026-05-06 02:46 36.25147 -114.45477 11111 ft 289 kts 232°
2026-05-06 02:46 36.23860 -114.47459 10825 ft 300 kts 232°
2026-05-06 02:46 36.22541 -114.49484 10532 ft 301 kts 232°
2026-05-06 02:47 36.21226 -114.51499 10248 ft 299 kts 232°
2026-05-06 02:47 36.19940 -114.53470 9969 ft 297 kts 232°
2026-05-06 02:47 36.18649 -114.55446 9693 ft 294 kts 232°
2026-05-06 02:47 36.17364 -114.57412 9386 ft 291 kts 233°
2026-05-06 02:48 36.16092 -114.59357 9111 ft 290 kts 232°
2026-05-06 02:48 36.14873 -114.61330 8887 ft 287 kts 238°
2026-05-06 02:48 36.13847 -114.63436 8740 ft 285 kts 241°
2026-05-06 02:48 36.12856 -114.65559 8631 ft 285 kts 241°
2026-05-06 02:49 36.11880 -114.67654 8450 ft 284 kts 241°
2026-05-06 02:49 36.10895 -114.69771 8310 ft 282 kts 241°
2026-05-06 02:49 36.09916 -114.71868 8145 ft 281 kts 241°
2026-05-06 02:49 36.08937 -114.73959 8050 ft 281 kts 240°
2026-05-06 02:50 36.08035 -114.76099 7836 ft 280 kts 247°
2026-05-06 02:50 36.07439 -114.78383 7493 ft 279 kts 260°
2026-05-06 02:50 36.07289 -114.80786 7073 ft 281 kts 270°
2026-05-06 02:50 36.07354 -114.83185 6646 ft 284 kts 271°
2026-05-06 02:51 36.07383 -114.85629 6246 ft 284 kts 269°
2026-05-06 02:51 36.07362 -114.88084 5852 ft 285 kts 269°
2026-05-06 02:51 36.07359 -114.90517 5476 ft 277 kts 269°
2026-05-06 02:51 36.07364 -114.92823 5136 ft 262 kts 269°
2026-05-06 02:52 36.07364 -114.95065 4804 ft 260 kts 269°
2026-05-06 02:52 36.07363 -114.97251 4476 ft 250 kts 269°
2026-05-06 02:52 36.07363 -114.99300 4185 ft 227 kts 269°
2026-05-06 02:52 36.07363 -115.01168 3897 ft 208 kts 269°
2026-05-06 02:53 36.07363 -115.02887 3627 ft 192 kts 269°
2026-05-06 02:53 36.07363 -115.04474 3383 ft 177 kts 268°
2026-05-06 02:53 36.07363 -115.05923 3168 ft 160 kts 269°
2026-05-06 02:53 36.07363 -115.07246 2962 ft 151 kts 267°
2026-05-06 02:54 36.07363 -115.08539 2763 ft 155 kts 264°
2026-05-06 02:54 36.07362 -115.09897 2529 ft 158 kts 265°
2026-05-06 02:54 36.07362 -115.11248 2318 ft 158 kts 267°
2026-05-06 02:54 36.07363 -115.12602 2109 ft 158 kts 267°
2026-05-06 02:55 36.07363 -115.13757 2080 ft 82 kts 270°
2026-05-06 02:55 36.07370 -115.14254 2091 ft 39 kts 271°
2026-05-06 02:55 36.07451 -115.14522 2097 ft 22 kts 294°
2026-05-06 02:55 36.07496 -115.14619 2100 ft 0 kts 313°
2026-05-06 02:56 36.07508 -115.14633 2101 ft 10 kts 321°
2026-05-06 02:56 36.07566 -115.14656 2104 ft 7 kts
2026-05-06 02:57 36.07645 -115.14650 2105 ft 16 kts 359°
2026-05-06 02:57 36.07771 -115.14646 2101 ft 3 kts 23°
2026-05-06 02:57 36.07780 -115.14611 2101 ft 6 kts 83°
2026-05-06 02:57 36.07775 -115.14553 2100 ft 10 kts 95°
2026-05-06 02:58 36.07792 -115.14470 2100 ft 10 kts 63°
2026-05-06 02:58 36.07822 -115.14385 2100 ft 12 kts 79°
2026-05-06 02:58 36.07825 -115.14281 2099 ft 13 kts 89°
2026-05-06 02:58 36.07828 -115.14167 2098 ft 14 kts 88°
2026-05-06 02:59 36.07832 -115.14037 2097 ft 16 kts 88°
2026-05-06 02:59 36.07877 -115.13957 2097 ft 12 kts 41°
2026-05-06 02:59 36.07940 -115.13884 2097 ft 13 kts 41°
2026-05-06 02:59 36.08001 -115.13863 2096 ft 5 kts 345°
2026-05-06 03:00 36.08036 -115.13876 2097 ft 5 kts 343°
2026-05-06 03:00 36.08040 -115.13878 2097 ft 0 kts 344°
2026-05-06 03:00 36.08043 -115.13879 2097 ft 0 kts 344°